User: anonymous
Location: Unspecified
(0.0000°N, 0.0000°E)
Time: 03:18:42
(UTC+00:00)
Language:

CLOUDSAT - Orbit

View from above orbital plane
View from above orbital plane
View from above satellite
View from above satellite

Ground track
Ground track

The orbit data is extracted from the following two-line orbital elements,

1 29107U 06016A   14211.45396600  .00000109  00000-0  34247-4 0  7266
2 29107 098.1998 154.6042 0001943 077.6793 282.4601 14.57100723439136
Epoch (UTC): 30 July 2014 10:53:42
Eccentricity: 0.0001943
inclination: 98.1998°
perigee height: 701 km
apogee height: 704 km
right ascension of ascending node: 154.6042°
argument of perigee: 77.6793°
revolutions per day: 14.57100723
mean anomaly at epoch: 282.4601°
orbit number at epoch: 43913

The dashed part of the orbit path shows where the satellite is in the earth's shadow,  

DLR